Current Weather Conditions: station 62114

sailwx.info

See reports from other nearby stations

no recent reports received from weather station ID 62114

Tides Pressure Air temp Water temp Dewpoint Dewpoint depression Visibility Wind speed Wind direction Waves Ship positions
date/time (UTC)wind fromknots sea level pressurealtimeterstation pressurevisibilityair tempwater tempwave heightnotes
2017-Mar-29 21:00 140 15 6.4
2017-Mar-29 20:00 140 13 6.1
2017-Mar-29 19:00 130 12 6.1
2017-Mar-29 18:00 130 6 5.9
2017-Mar-29 17:00 120 5 8.2
2017-Mar-29 16:00 120 4 9.4
2017-Mar-29 15:00 070 4 13.5
2017-Mar-29 14:00 060 4 9.8
2017-Mar-29 13:00 040 6 10.7
2017-Mar-29 12:00 050 6 10.2
2017-Mar-29 11:00 030 6 10.6
2017-Mar-29 10:00 030 6 9.9
2017-Mar-29 09:00 020 7 9.6
2017-Mar-29 08:00 020 9 7.1
2017-Mar-29 07:00 010 9 8.4
2017-Mar-29 06:00 350 9 7.5
2017-Mar-29 05:00 340 6 6.2
2017-Mar-29 04:00 350 6 8.4
2017-Mar-29 03:00 360 7 10.0
2017-Mar-29 02:00 360 8 9.2
2017-Mar-29 01:00 010 7 10.9
2017-Mar-29 00:00 020 6 10.4
2017-Mar-28 23:00 020 7 10.5
2017-Mar-28 22:00 010 5 11.4
2017-Mar-28 21:00 020 6 11.8
2017-Mar-28 20:00 050 6 12.6
2017-Mar-28 19:00 050 6 13.2
2017-Mar-28 18:00 060 6 13.7
2017-Mar-28 17:00 070 7 12.0
2017-Mar-28 16:00 070 8 13.6
2017-Mar-28 15:00 080 9 11.2
2017-Mar-28 14:00 090 11 11.3
2017-Mar-28 13:00 090 13 10.0
2017-Mar-28 12:00 080 13 8.7
2017-Mar-28 11:00 090 8 12.9
2017-Mar-28 10:00 080 6 9.8
2017-Mar-28 09:00 100 9 10.1
2017-Mar-28 08:00 100 6 10.8
2017-Mar-28 07:00 090 6 9.8
2017-Mar-28 06:00 100 6 10.1
2017-Mar-28 05:00 110 6 7.0
2017-Mar-28 04:00 110 6 7.4
2017-Mar-28 03:00 100 6 6.9
2017-Mar-28 02:00 110 6 6.4
2017-Mar-28 01:00 090 6 9.9
2017-Mar-28 00:00 100 8 10.7
2017-Mar-27 23:00 090 9 10.9
2017-Mar-27 22:00 090 8 9.2